Location: Mahannah Oil Field
(37.4664°N, 96.6003°W)
Time: 19:58:38
(UTC+00:00)

Vanguard 2 Rocket - All Passes

Search period start: 21 January 2021 00:00
Search period end: 31 January 2021 00:00
Orbit: 554 x 3325 km, 32.9° (Epoch: 21 January)

Date Brightness Start Highest point End Pass type
(mag) Time Alt. Az. Time Alt. Az. Time Alt. Az.
21 Jan - 02:01:46 10° W 02:08:03 47° SSW 02:12:15 10° ESE visible
21 Jan - 04:17:51 10° WSW 04:20:03 14° SSW 04:22:05 10° S night (unlit)
21 Jan - 18:18:47 10° SSE 18:24:35 12° SE 18:29:41 10° SE daylight
21 Jan - 20:27:29 10° SSW 20:40:21 32° SSE 20:48:39 10° E daylight
21 Jan - 22:43:26 10° WSW 22:55:06 54° S 23:01:41 10° E daylight
22 Jan - 01:00:37 10° W 01:08:39 57° S 01:13:30 10° ESE visible
22 Jan - 03:16:47 10° W 03:20:58 24° SSW 03:24:18 10° SSE visible
22 Jan - 19:26:37 10° SSW 19:39:32 27° SSE 19:48:33 10° E daylight
22 Jan - 21:41:28 10° SW 21:54:51 49° SSE 22:02:33 10° E daylight
22 Jan - 23:58:59 10° WSW 00:09:00 62° S 00:14:40 10° E visible
23 Jan - 02:15:49 10° W 02:21:51 37° SSW 02:25:57 10° SE visible
23 Jan - 18:26:35 10° S 18:38:29 21° SSE 18:47:38 10° ESE daylight
23 Jan - 20:39:36 10° SW 20:54:17 43° SSE 21:03:11 10° E daylight
23 Jan - 22:56:56 10° WSW 23:09:03 63° S 23:15:45 10° E daylight
24 Jan - 01:14:32 10° W 01:22:31 51° SSW 01:27:23 10° ESE visible
24 Jan - 03:31:36 10° WSW 03:34:29 15° SW 03:36:57 10° S visible
24 Jan - 17:28:00 10° S 17:37:16 16° SE 17:45:11 10° ESE daylight
24 Jan - 19:38:03 10° SW 19:53:24 37° SSE 20:03:26 10° E daylight
24 Jan - 21:54:39 10° WSW 22:08:47 60° S 22:16:41 10° E daylight
25 Jan - 00:12:49 10° W 00:22:55 62° S 00:28:38 10° ESE visible
25 Jan - 02:30:02 10° W 02:35:28 27° SSW 02:39:20 10° SSE visible
25 Jan - 18:37:04 10° SSW 18:52:15 31° SSE 19:03:09 10° E daylight
25 Jan - 20:52:21 10° SW 21:08:10 55° SSE 21:17:24 10° E daylight
25 Jan - 23:10:38 10° W 23:22:59 67° S 23:29:46 10° E daylight
26 Jan - 01:28:31 10° W 01:36:16 41° SSW 01:41:04 10° SE visible
26 Jan - 17:36:58 10° S 17:50:56 25° SE 18:02:03 10° E daylight
26 Jan - 19:50:17 10° SW 20:07:12 49° SSE 20:17:49 10° E daylight
26 Jan - 22:08:08 10° WSW 22:22:41 67° S 22:30:43 10° E daylight
27 Jan - 00:26:42 10° W 00:36:45 55° SSW 00:42:30 10° ESE visible
27 Jan - 02:44:42 10° WSW 02:48:51 17° SW 02:52:06 10° S visible
27 Jan - 16:38:15 10° S 16:49:35 18° SE 16:59:32 10° ESE daylight
27 Jan - 18:48:42 10° SW 19:05:57 42° SSE 19:17:50 10° E daylight
27 Jan - 21:05:33 10° WSW 21:22:02 64° S 21:31:29 10° E daylight
27 Jan - 23:24:27 10° W 23:36:53 65° S 23:43:43 10° ESE daylight
28 Jan - 01:42:40 10° W 01:49:48 30° SSW 01:54:27 10° SSE visible
28 Jan - 15:42:55 10° SSE 15:48:16 12° SE 15:53:25 10° ESE daylight
28 Jan - 17:47:48 10° SSW 18:04:30 35° SSE 18:17:17 10° E daylight
28 Jan - 20:03:06 10° WSW 20:20:59 59° SSE 20:31:58 10° E daylight
28 Jan - 22:21:51 10° W 22:36:36 70° S 22:44:43 10° E daylight
29 Jan - 00:40:39 10° W 00:50:26 45° SSW 00:56:10 10° SE visible
29 Jan - 16:47:50 10° SSW 17:03:01 27° SE 17:15:53 10° E daylight
29 Jan - 19:01:03 10° SW 19:19:38 53° SSE 19:32:08 10° E daylight
29 Jan - 21:19:03 10° WSW 21:35:55 70° S 21:45:29 10° E daylight
29 Jan - 23:38:19 10° W 23:50:41 59° SSW 23:57:33 10° ESE daylight
30 Jan - 01:57:12 10° W 02:03:06 21° SW 02:07:18 10° S visible
30 Jan - 15:49:13 10° S 16:01:36 20° SE 16:13:05 10° E daylight
30 Jan - 17:59:38 10° SW 18:18:02 45° SSE 18:31:50 10° E daylight
30 Jan - 20:16:21 10° WSW 20:34:48 68° S 20:46:01 10° E daylight
30 Jan - 22:35:39 10° W 22:50:28 68° S 22:58:38 10° ESE daylight
